Wind_Speed
43 39 38 34 33 34 31 31 16 5 9 18 22 35 48 50 52 49 47 46 43 42 42 42 40 38 36 34 33 30 28 26 25 23 21 19 17 18
40 38 36 34 33 34 35 31 28 26 8 23 32 30 32 43 48 51 51 49 46 45 45 47 47 45 41 36 36 34 32 30 28 27 24 22 19 19
41 41 40 41 35 37 40 38 35 33 18 29 27 29 32 34 38 43 47 50 51 48 49 51 50 50 47 42 41 38 34 34 32 30 28 24 23 19
42 41 43 40 42 37 38 38 37 39 34 29 30 27 32 37 38 40 42 44 47 51 50 53 55 55 53 47 45 42 39 39 33 31 29 27 25 24
42 41 41 41 39 38 36 37 37 36 35 32 32 31 34 32 36 38 40 40 42 47 46 51 57 58 57 53 50 46 44 42 36 34 30 28 26 27
36 37 38 38 40 40 37 35 35 32 31 29 31 24 27 27 34 32 30 36 39 42 46 47 53 59 58 58 54 50 48 45 40 38 33 32 30 29
41 38 35 41 41 42 38 35 35 33 32 30 29 24 22 18 33 36 30 27 29 35 38 41 48 52 60 62 58 55 52 49 44 41 36 34 32 31
34 37 40 41 44 43 43 39 40 39 34 31 28 25 26 30 26 29 25 13 7 33 35 34 42 44 50 54 58 56 53 50 47 44 38 37 35 33
24 33 38 42 45 47 48 47 49 45 42 33 31 31 23 35 35 25 28 31 23 24 34 22 33 37 44 48 52 55 57 54 52 45 42 38 36 35
16 18 29 31 36 42 41 40 51 51 51 47 36 34 35 41 42 40 41 28 19 18 28 15 28 29 32 40 45 51 56 55 56 48 46 42 38 37
17 18 18 25 32 37 41 35 33 42 42 44 54 48 41 39 39 35 26 25 6 13 33 19 17 20 22 29 36 42 50 53 56 53 48 41 38 38
22 19 18 20 25 31 36 34 30 33 38 42 39 38 43 42 43 41 39 28 15 5 23 19 18 18 5 18 28 36 44 50 53 52 48 39 40 38
19 22 18 19 22 26 33 35 31 37 38 37 36 35 34 36 40 38 38 36 28 8 23 33 19 21 7 6 20 31 41 43 45 48 44 35 38 41
19 19 18 18 20 22 25 30 32 32 30 27 23 25 29 31 34 36 33 33 31 27 22 39 14 26 17 7 7 26 31 35 38 40 41 32 33 40
17 18 17 17 20 20 19 22 31 25 23 22 24 26 28 29 29 28 25 26 22 14 16 32 23 28 26 16 12 18 22 28 34 38 34 32 38 40
16 15 14 14 14 14 16 18 23 24 24 25 23 21 20 21 25 29 25 27 23 18 21 25 28 20 24 18 20 22 24 18 31 32 32 34 37 38
12 11 12 13 13 14 14 16 17 20 22 21 21 21 21 24 24 25 28 27 19 22 22 19 20 18 17 19 14 20 26 21 21 29 30 28 34 35
14 13 14 15 17 18 17 15 14 17 21 24 23 24 25 24 24 23 25 24 22 21 23 23 22 18 12 8 14 20 21 20 22 29 28 24 25 31
17 17 15 16 16 18 19 19 16 14 17 18 24 25 25 24 25 22 21 22 20 22 24 27 25 19 5 2 9 15 22 23 23 24 28 25 20 29
18 19 18 18 19 20 20 20 20 20 21 21 22 24 25 26 22 19 19 19 19 19 18 22 22 20 13 7 7 13 17 19 24 25 23 23 19 17
18 19 23 24 23 22 22 21 23 23 21 22 21 23 23 25 22 21 20 20 20 17 16 14 16 18 11 12 8 7 16 15 15 23 23 19 15 14
21 22 23 25 25 24 24 23 22 22 21 20 21 23 23 23 23 22 21 21 17 17 14 15 16 17 16 11 11 12 15 18 14 12 11 17 11 12
23 24 25 27 26 26 25 23 23 23 23 22 22 22 23 23 23 22 21 21 20 18 18 19 18 18 15 12 12 14 13 17 19 16 15 14 14 11
Wind_Direction
210 209 212 215 216 221 218 215 201 179 222 226 222 233 232 235 240 240 240 238 231 228 224 222 221 219 218 214 211 210 210 207 200 202 203 201 205 210
207 209 211 215 214 216 221 218 214 230 245 223 232 231 234 234 239 240 242 242 239 231 228 223 222 221 219 219 214 211 210 211 209 204 207 208 209 208
207 208 209 210 210 209 216 216 219 222 230 251 248 242 232 234 235 239 242 240 241 238 231 226 224 224 221 220 217 214 214 214 210 208 209 207 208 210
211 210 213 211 212 210 210 212 216 221 223 236 240 229 227 233 238 238 238 239 235 242 234 229 226 225 223 223 220 217 217 215 213 214 208 208 210 212
214 213 215 213 214 214 210 214 216 221 222 223 232 237 232 232 229 234 237 236 236 238 238 233 228 226 224 227 223 218 216 215 214 211 211 211 207 209
229 218 218 217 215 215 215 213 214 217 219 224 230 222 222 222 225 218 221 225 227 232 240 233 229 228 226 229 225 220 215 215 212 210 211 212 210 207
223 222 225 222 222 221 217 216 218 218 219 219 222 222 207 192 204 219 221 220 220 223 226 225 222 221 224 230 226 221 218 214 210 211 208 210 210 207
222 222 224 229 232 228 225 223 222 220 222 222 221 220 208 214 210 208 205 180 203 222 221 223 217 213 217 222 223 223 220 214 210 208 210 209 206 207
222 218 226 229 231 228 230 233 235 231 232 227 228 230 212 212 214 199 194 198 215 216 208 211 209 210 217 220 221 219 220 215 209 209 205 206 209 207
244 242 232 230 224 226 228 233 237 238 236 237 232 234 234 235 228 225 213 201 205 204 195 194 203 208 215 218 220 218 219 216 210 211 206 204 210 207
268 249 251 246 235 240 225 225 233 237 242 245 243 241 243 240 236 215 194 176 174 185 189 197 192 196 205 213 219 221 220 218 211 208 205 205 206 208
286 274 253 248 246 241 235 230 229 237 242 239 244 245 243 238 239 229 208 189 176 161 193 175 171 177 166 205 207 210 214 217 214 208 203 206 208 206
282 285 275 266 254 247 242 234 230 246 250 245 241 237 229 224 218 215 214 199 182 184 197 188 175 167 141 157 189 202 204 201 204 202 204 209 212 209
278 283 277 273 269 255 247 244 237 240 242 235 222 213 210 211 211 207 210 204 212 216 207 194 181 179 173 141 163 189 194 199 198 196 198 213 216 214
278 274 272 271 267 261 247 237 230 227 216 202 199 199 204 206 204 197 198 198 199 201 194 195 202 195 187 169 160 178 177 196 201 198 207 212 202 208
271 263 254 242 236 237 218 211 210 208 200 196 191 191 192 191 189 192 174 172 157 143 172 192 203 201 187 191 185 169 188 182 205 210 219 211 208 214
241 224 208 189 174 184 185 185 188 179 177 173 169 168 168 175 175 180 171 160 151 146 154 176 190 198 201 195 166 187 181 190 200 194 195 195 205 214
209 209 199 187 165 165 165 166 171 178 169 167 164 165 159 158 157 167 166 161 143 147 151 166 171 161 150 181 209 184 188 192 192 194 190 189 196 208
197 193 187 180 162 164 164 161 160 168 159 154 151 156 154 150 152 151 157 152 146 155 165 171 169 164 156 153 187 205 193 195 189 189 197 197 202 211
199 176 174 171 165 159 161 160 159 155 154 157 151 151 149 145 143 144 156 153 152 152 153 169 177 178 183 168 150 189 201 198 192 189 191 203 215 228
184 175 172 167 162 163 160 160 160 153 154 155 154 156 155 156 152 160 162 159 153 153 157 169 181 186 176 165 139 146 191 208 217 203 196 184 183 199
171 169 169 160 160 160 159 163 157 151 155 157 159 159 158 160 153 156 158 152 156 158 157 168 183 185 180 184 150 152 177 196 211 220 223 211 178 195
167 166 158 157 158 158 161 160 155 156 158 163 162 163 165 160 164 163 165 168 168 166 161 156 168 183 194 189 173 167 169 185 192 187 197 218 223 228
Height
764 769 775 779 785 788 793 797 802 813 811 809 813 812 816 821 823 828 832 835 840 845 849 854 858 862 864 867 870 874 879 883 882 887 891 894 897 902
754 760 767 772 776 781 785 791 794 799 802 801 802 805 808 812 815 819 822 828 833 837 841 845 847 852 856 861 865 867 872 876 880 882 886 890 895 900
744 748 753 759 764 768 772 779 785 791 794 794 797 799 803 805 807 809 814 818 821 827 831 836 841 844 849 853 859 864 868 873 873 877 880 884 890 896
736 741 744 749 754 758 762 767 773 778 784 787 789 791 792 794 798 800 803 807 811 815 821 827 831 834 839 844 850 856 862 868 871 876 877 879 886 890
724 731 736 741 745 750 752 757 762 768 773 776 778 782 786 788 792 795 796 799 800 803 810 816 821 823 830 836 840 845 854 861 864 870 875 877 881 886
712 723 730 734 735 740 745 749 755 760 765 768 772 774 777 781 786 788 789 790 791 794 797 803 809 816 824 827 832 837 843 852 856 861 865 870 876 881
710 715 717 723 727 732 738 742 747 750 753 757 759 764 768 772 774 773 779 783 786 789 792 795 800 805 812 819 824 828 834 840 847 856 860 865 870 875
704 707 712 717 721 724 728 731 736 738 741 745 747 748 753 759 765 767 772 775 782 781 783 787 792 796 798 806 812 819 828 834 842 847 854 860 864 870
699 702 703 703 709 717 717 720 719 727 731 735 736 737 741 748 754 757 759 761 765 770 778 782 788 785 790 796 803 809 815 824 832 839 845 852 859 863
695 695 696 699 701 706 707 710 713 718 722 728 727 732 735 739 742 741 746 753 760 764 769 774 779 780 786 788 794 801 805 813 822 829 836 843 851 857
689 689 690 691 693 696 699 702 705 704 707 715 720 723 726 728 736 743 745 751 757 759 759 766 773 778 783 785 789 796 803 806 812 821 829 836 843 850
686 683 682 685 688 688 690 692 694 698 703 705 707 713 717 719 725 729 734 742 749 755 758 763 770 773 783 785 786 792 800 803 806 813 821 829 837 844
682 678 676 679 680 683 685 685 686 693 696 697 699 705 710 714 718 723 726 735 736 744 748 757 763 768 775 783 785 790 794 800 805 808 816 822 830 836
675 675 673 671 675 678 680 681 683 685 691 696 695 699 706 710 716 718 722 728 733 739 744 751 755 761 771 781 784 787 793 799 802 803 812 819 825 831
672 674 669 667 671 672 675 676 680 683 686 690 694 698 701 706 711 715 722 726 732 737 743 748 755 761 767 771 777 782 787 797 799 802 807 814 820 827
671 669 667 668 668 670 672 673 675 678 682 686 690 694 696 703 709 714 720 724 729 736 741 748 754 761 766 769 772 778 782 789 795 800 806 811 816 822
668 667 669 665 661 668 671 672 674 672 678 682 686 693 698 704 709 715 719 722 726 733 741 749 756 762 765 768 772 775 779 784 788 794 801 808 811 817
660 662 663 663 659 664 670 674 677 680 675 677 682 691 698 702 707 716 722 723 728 734 740 747 754 762 767 770 770 773 779 784 787 792 797 805 808 813
650 655 658 660 656 662 667 668 675 680 678 680 682 692 694 699 709 714 722 724 729 735 740 745 752 756 762 767 769 770 773 781 786 790 795 801 804 807
649 645 653 656 659 660 666 669 677 677 677 686 690 693 695 699 708 716 726 728 731 735 741 746 750 752 758 760 765 768 771 775 780 787 794 798 802 807
645 650 649 651 655 663 665 671 677 673 679 686 692 695 696 701 709 721 728 731 733 735 740 745 749 756 760 762 765 767 769 775 780 784 789 794 800 806
641 647 650 646 654 660 666 676 676 674 683 688 694 698 700 706 711 719 725 727 732 736 740 745 751 755 759 761 762 766 771 776 780 784 785 789 794 801
638 645 644 647 655 662 671 677 677 681 683 692 697 701 703 705 710 715 721 726 730 735 738 745 750 755 760 762 765 768 770 774 777 781 784 788 793 795